ITY1793 LIML-LICJ

Flight info

Callsign ITY1793
Flight time N/A
Altitude 37000
Route LOGDI DCT LOMED DCT LURON
Aircraft A320/M-SDE3FGHIRWY/LB1

Departure

Time 2026-04-27 12:08
Airport Milano Linate Airport (LIML)

Arrival

Time N/A
Airport Falcone–Borsellino Airport (LICJ)
Time Latitude Longitude Altitude Speed Heading
2026-04-27 11:55 45.45973 9.27967 360 ft 0 kts
2026-04-27 11:57 45.45956 9.27967 360 ft 2 kts
2026-04-27 11:57 45.45939 9.27966 360 ft 2 kts
2026-04-27 11:57 45.45922 9.27964 360 ft 3 kts 26°
2026-04-27 11:58 45.45908 9.27949 360 ft 3 kts 63°
2026-04-27 11:58 45.45905 9.27942 364 ft 0 kts 76°
2026-04-27 12:01 45.45903 9.27945 363 ft 1 kts 100°
2026-04-27 12:01 45.45899 9.27954 361 ft 1 kts 117°
2026-04-27 12:01 45.45895 9.27961 365 ft 3 kts 127°
2026-04-27 12:02 45.45815 9.27988 360 ft 15 kts 177°
2026-04-27 12:02 45.45705 9.27984 361 ft 16 kts 183°
2026-04-27 12:02 45.45588 9.27973 364 ft 18 kts 184°
2026-04-27 12:02 45.45458 9.27969 363 ft 20 kts 175°
2026-04-27 12:03 45.45323 9.27929 359 ft 21 kts 198°
2026-04-27 12:03 45.45176 9.27882 358 ft 23 kts 182°
2026-04-27 12:03 45.45007 9.27895 357 ft 26 kts 175°
2026-04-27 12:03 45.44823 9.27943 356 ft 28 kts 173°
2026-04-27 12:04 45.44623 9.27975 358 ft 30 kts 175°
2026-04-27 12:04 45.44408 9.27993 353 ft 32 kts 176°
2026-04-27 12:04 45.44181 9.28016 352 ft 34 kts 175°
2026-04-27 12:04 45.43943 9.28048 350 ft 35 kts 174°
2026-04-27 12:05 45.43700 9.28076 353 ft 29 kts 175°
2026-04-27 12:05 45.43512 9.28089 347 ft 22 kts 191°
2026-04-27 12:05 45.43448 9.27991 357 ft 5 kts 249°
2026-04-27 12:05 45.43442 9.27951 351 ft 0 kts 260°
2026-04-27 12:06 45.43444 9.27877 348 ft 14 kts 291°
2026-04-27 12:06 45.43498 9.27822 354 ft 0 kts 346°
2026-04-27 12:07 45.43503 9.27820 352 ft 5 kts 346°
2026-04-27 12:07 45.43802 9.27784 349 ft 83 kts 357°
2026-04-27 12:07 45.44605 9.27711 359 ft 145 kts 355°
2026-04-27 12:07 45.45748 9.27563 543 ft 180 kts 358°
2026-04-27 12:08 45.47067 9.27507 1139 ft 189 kts
2026-04-27 12:08 45.48301 9.27661 1358 ft 173 kts
2026-04-27 12:08 45.49647 9.27993 1034 ft 228 kts 14°
2026-04-27 12:08 45.51208 9.28462 2233 ft 223 kts 15°
2026-04-27 12:09 45.52616 9.29553 3236 ft 245 kts 42°
2026-04-27 12:09 45.53682 9.31647 3704 ft 284 kts 70°
2026-04-27 12:09 45.53898 9.34630 3930 ft 326 kts 99°
2026-04-27 12:09 45.52984 9.37777 4087 ft 366 kts 126°
2026-04-27 12:10 45.51051 9.40299 4533 ft 381 kts 146°
2026-04-27 12:10 45.48900 9.42381 6057 ft 367 kts 146°
2026-04-27 12:10 45.46840 9.44370 7715 ft 349 kts 144°
2026-04-27 12:10 45.45137 9.46715 9448 ft 334 kts 126°
2026-04-27 12:11 45.43937 9.49469 11016 ft 326 kts 121°
2026-04-27 12:11 45.42671 9.52276 11765 ft 346 kts 124°
2026-04-27 12:11 45.41285 9.55139 12688 ft 355 kts 125°
2026-04-27 12:11 45.39847 9.58041 13712 ft 361 kts 125°
2026-04-27 12:12 45.38315 9.60908 14656 ft 367 kts 132°
2026-04-27 12:12 45.36425 9.63380 15536 ft 372 kts 143°
2026-04-27 12:12 45.34266 9.65368 16388 ft 377 kts 149°
2026-04-27 12:12 45.32009 9.67321 17237 ft 382 kts 148°
2026-04-27 12:13 45.29727 9.69311 18058 ft 388 kts 148°
2026-04-27 12:13 45.27413 9.71334 18806 ft 393 kts 148°
2026-04-27 12:13 45.25071 9.73382 19506 ft 397 kts 148°
2026-04-27 12:13 45.22713 9.75441 20202 ft 402 kts 148°
2026-04-27 12:14 45.20317 9.77526 20887 ft 405 kts 148°
2026-04-27 12:14 45.17906 9.79619 21567 ft 409 kts 148°
2026-04-27 12:14 45.15463 9.81733 22207 ft 413 kts 148°
2026-04-27 12:14 45.12999 9.83861 22810 ft 416 kts 148°
2026-04-27 12:15 45.10522 9.86001 23371 ft 420 kts 148°
2026-04-27 12:15 45.08017 9.88166 23879 ft 423 kts 148°
2026-04-27 12:15 45.05494 9.90341 24316 ft 426 kts 149°
2026-04-27 12:15 45.02955 9.92533 24731 ft 428 kts 148°
2026-04-27 12:16 45.00404 9.94735 25122 ft 431 kts 149°
2026-04-27 12:16 44.97837 9.96944 25505 ft 433 kts 149°
2026-04-27 12:16 44.95251 9.99164 25890 ft 435 kts 149°
2026-04-27 12:16 44.92683 10.01361 26257 ft 438 kts 149°
2026-04-27 12:17 44.90069 10.03591 26636 ft 440 kts 149°
2026-04-27 12:17 44.87445 10.05832 26991 ft 442 kts 149°
2026-04-27 12:17 44.84807 10.08089 27343 ft 444 kts 149°
2026-04-27 12:17 44.82155 10.10351 27687 ft 447 kts 149°
2026-04-27 12:18 44.79490 10.12628 28022 ft 449 kts 149°
2026-04-27 12:18 44.76808 10.14916 28354 ft 451 kts 149°
2026-04-27 12:18 44.74116 10.17210 28672 ft 454 kts 149°
2026-04-27 12:18 44.71437 10.19586 28995 ft 456 kts 144°
2026-04-27 12:19 44.68969 10.22380 29300 ft 457 kts 139°
2026-04-27 12:19 44.66541 10.25286 29611 ft 459 kts 139°
2026-04-27 12:19 44.64099 10.28205 29913 ft 461 kts 139°
2026-04-27 12:19 44.61678 10.31094 30181 ft 463 kts 139°
2026-04-27 12:20 44.59218 10.34025 30423 ft 465 kts 139°
2026-04-27 12:20 44.56749 10.36963 30669 ft 466 kts 139°
2026-04-27 12:20 44.54271 10.39907 30910 ft 468 kts 139°
2026-04-27 12:20 44.51783 10.42855 31127 ft 469 kts 139°
2026-04-27 12:21 44.49285 10.45810 31395 ft 469 kts 139°
2026-04-27 12:21 44.46791 10.48758 31707 ft 468 kts 139°
2026-04-27 12:21 44.44303 10.51693 32008 ft 467 kts 139°
2026-04-27 12:21 44.41820 10.54624 32321 ft 466 kts 139°
2026-04-27 12:22 44.39343 10.57549 32627 ft 466 kts 139°
2026-04-27 12:22 44.36872 10.60462 32941 ft 465 kts 139°
2026-04-27 12:22 44.34402 10.63370 33253 ft 464 kts 139°
2026-04-27 12:22 44.31936 10.66266 33561 ft 463 kts 139°
2026-04-27 12:23 44.29468 10.69154 33868 ft 462 kts 140°
2026-04-27 12:23 44.27001 10.72037 34164 ft 462 kts 139°
2026-04-27 12:23 44.24544 10.74911 34429 ft 461 kts 139°
2026-04-27 12:23 44.22083 10.77788 34690 ft 461 kts 139°
2026-04-27 12:24 44.19627 10.80660 34929 ft 460 kts 139°
2026-04-27 12:24 44.17169 10.83531 35166 ft 460 kts 140°
2026-04-27 12:24 44.14750 10.86354 35392 ft 460 kts 140°
2026-04-27 12:24 44.12295 10.89217 35617 ft 460 kts 140°
2026-04-27 12:25 44.09837 10.92078 35822 ft 460 kts 140°
2026-04-27 12:25 44.07382 10.94931 36020 ft 460 kts 140°
2026-04-27 12:25 44.04902 10.97743 36224 ft 460 kts 144°
2026-04-27 12:25 44.02195 11.00109 36407 ft 460 kts 153°
2026-04-27 12:26 43.99260 11.01874 36592 ft 459 kts 162°
2026-04-27 12:26 43.96213 11.03218 36776 ft 459 kts 163°
2026-04-27 12:26 43.93166 11.04558 36981 ft 459 kts 163°
2026-04-27 12:26 43.90116 11.05910 37114 ft 460 kts 163°
2026-04-27 12:27 43.87059 11.07271 37137 ft 463 kts 162°
2026-04-27 12:27 43.80887 11.10015 37139 ft 469 kts 163°
2026-04-27 12:28 43.78827 11.10925 37135 ft 470 kts 163°